Regional Weather Roundup
Issued by NWS Grand Forks, ND

Home | Current Version | Previous Version | Graphics & Text | Print | Product List | Glossary On
Versions: 1 2 3 4 5 6 7 8 9 10 11 12 13 14 15 16 17 18 19 20 21 22 23 24 25 26 27 28 29 30 31 32 33 34 35 36 37 38 39 40 41 42 43 44 45 46 47 48 49 50
000
ASUS43 KFGF 040810
RWRFGF
PRAIRIE TO PINES  WEATHER ROUNDUP
NATIONAL WEATHER SERVICE EASTERN NORTH DAKOTA/GRAND FORKS ND
300 AM CDT WED MAY 04 2016

 **SATELLITE DATA USED TO AUGMENT SKY COVER AT AUTOMATED STATIONS**
 *****  WEATHER ACROSS EASTERN NORTH DAKOTA  *****

CITY           SKY/WX    TMP DP  RH WIND       PRES   REMARKS
GRAND FORKS    CLEAR     37  31  78 NW8       30.04R
GRAND FRKS AFB CLEAR     39  32  75 N7        30.04S
DEVILS LAKE    CLEAR     36  31  82 NW3       30.08R
FARGO          CLEAR     42  29  59 N7        30.02R
WAHPETON ARPT  SUNNY     45  30  57 N8        30.01R
$$

 ***** WEATHER ACROSS CENTRAL AND WESTERN NORTH DAKOTA  *****

CITY           SKY/WX    TMP DP  RH WIND       PRES   REMARKS
BISMARCK       CLEAR     40  31  70 NE3       30.10S
MINOT          CLEAR     47  28  47 SE3       30.08R
JAMESTOWN      CLEAR     36  30  79 NW6       30.06R
MINOT AFB      CLEAR     43  31  62 SE6       30.07S
GARRISON         N/A     42  31  64 CALM      30.09R
WILLISTON      CLEAR     48  40  73 CALM      30.07R
DICKINSON      CLEAR     44  35  70 S8        30.09R
HETTINGER      CLEAR     39  34  82 W3        30.12R
$$

 *****  OTHER AIRPORT OBSERVATIONS IN OUR AREA  *****

CITY           SKY/WX    TMP DP  RH WIND       PRES   REMARKS
WALHALLA       FAIR      37  34  87 NW5       30.08R
GRAFTON AIRPOR FAIR      41  34  75 NW7       30.07R
VALLEY CITY AR FAIR      37  34  87 NW8       30.07R
CANDO          FAIR      36  32  87 NW6       30.10S
CAVALIER APRT  FAIR      41  32  70 N7        30.07R
GWINNER        FAIR      45  32  61 N9        30.03S
SHEYENNE NWR     N/A     46  29  52 N5        29.95S
ROLLA          FAIR      34  27  75 NW5       30.09S
 ***** THE ABOVE OBSERVATIONS ARE NON NWS ARE NOT QUALITY
       CONTROLLED AND MAY MIS-REPORT RAIN FOR SNOW...
$$

  *****  WEATHER ACROSS NORTHERN MINNESOTA  *****

CITY           SKY/WX    TMP DP  RH WIND       PRES   REMARKS
FLAG ISLAND    CLEAR     45  36  70 N10       30.00R
WARROAD        CLEAR     39  36  87 NW5       30.02R
ROSEAU         CLEAR     37  34  87 N6        30.02S
HALLOCK        CLEAR     37  30  75 N6        30.04R
THF RVR FALLS  CLEAR     43  32  65 N9        30.03R
BAUDETTE       CLEAR     42  34  73 N8        29.99R
WASKISH        CLEAR     43  36  75 NW6       29.98S
CROOKSTON      CLEAR     37  30  75 NW6       30.04R
STEPHEN NDAWN    N/A     36  28  75 NW3         N/A
GREENBUSH NDAW   N/A     36  34  93 CALM        N/A
$$
  *****  WEATHER ACROSS CENTRAL AND WEST MINNESOTA  *****

CITY           SKY/WX    TMP DP  RH WIND       PRES   REMARKS
FOSSTON        CLEAR     36  32  87 N6        30.01R
BEMIDJI        CLEAR     35  31  85 NW6       29.98S
PARK RAPIDS    CLEAR     40  31  70 NW6       29.98R
ELBOW LAKE     FAIR      47  36  64 N8        29.99R
WADENA         CLEAR     39  32  75 NW6       29.97S
DETROIT LAKES  CLEAR     45  36  70 NW5       30.00S
MOORHEAD       CLEAR     43  28  56 N8        30.03R
FERGUS FALLS   CLEAR     46  36  66 N6        29.98R
MORRIS MN      CLEAR     46  34  61 N9        29.97R
STAPLES        CLEAR     39  32  75 CALM      29.97R
$$
  *****  WEATHER ELSEWHERE ACROSS MINNESOTA  *****

CITY           SKY/WX    TMP DP  RH WIND       PRES   REMARKS
DULUTH         CLEAR     42  30  62 NW6       29.90S
INTRNTL FALLS  CLEAR     38  31  76 NW6       29.95S
ELY            CLEAR     39  30  70 NW3       29.90S
CLOQUET        CLEAR     41  30  65 NW5       29.91S
WHEATON        CLEAR     45  34  65 N5        30.02R
BRAINERD       CLEAR     44  32  62 N6        29.96R
HIBBING        CLEAR     30  27  88 CALM      29.92S
ALEXANDRIA     CLEAR     47  34  60 NE10      29.97S
SAINT CLOUD    CLEAR     45  33  63 N6        29.93R
MINNEAPOLIS    CLEAR     52  32  46 NE14      29.90R
$$

  *****  WEATHER ACROSS SOUTH DAKOTA  *****

CITY           SKY/WX    TMP DP  RH WIND       PRES   REMARKS
SIOUX FALLS    CLEAR     47  32  56 N13       29.97R
BROOKINGS      CLEAR     41  31  67 CALM      29.99R
WATERTOWN      CLEAR     38  30  73 N6        30.00R
HURON          CLEAR     38  32  79 NW7       30.03R
SISSETON         N/A     44  31  60 N12       30.00R
ABERDEEN       CLEAR     41  31  67 N9        30.05R
MITCHELL       CLEAR     47  36  65 N9        30.03R
PIERRE         CLEAR     46  33  60 NE5       30.07R
MOBRIDGE       CLEAR     42  32  67 N5        30.07R
RAPID CITY     CLEAR     47  37  68 NW9       30.12S
$$

  *****  SOME WEATHER IN NEARBY STATES *****

CITY           SKY/WX    TMP DP  RH WIND       PRES   REMARKS
GLASGOW MT     CLEAR     52  39  61 SE10      30.04R
GREAT FALLS MT CLEAR     50  38  63 VRB3      30.03R
CHEYENNE WY    CLEAR     41  33  73 W12       30.27S
SCOTTSBLUFF NE CLEAR     42  38  85 N3        30.18S
OMAHA NE       CLEAR     51  43  74 N7        29.89S
DES MOINES IA  PTCLDY    55  35  47 NW10      29.78S
DAVENPORT IA   MOCLDY    47  46  97 CALM      29.70R
CHICAGO IL     RAIN      50  47  89 N7        29.64F FOG
EAU CLAIRE WI  CLEAR     46  34  62 N12       29.84R
LA CROSSE WI   CLEAR     49  42  77 N10       29.79R
$$

  *****  SOME NATIONAL WEATHER *****

CITY           SKY/WX    TMP DP  RH WIND       PRES   REMARKS
LA GUARDIA NY  CLOUDY    51  49  92 E5        29.80F
RALEIGH NC     PTCLDY    61  58  90 N3        29.71S
ATLANTA GA     PTCLDY    57  49  74 NW10      29.83S
NEW ORLEANS LA MOCLDY    67  56  67 N15       29.95R
OKLAHOMA CITY  CLEAR     50  50 100 SW5       30.03F
ALBUQUERQUE NM CLEAR     59  28  30 E7        30.28R
SALT LAKE CITY CLEAR     56  38  50 SE7       30.16S
LOS ANGELES CA MOCLDY    57  53  86 W7        29.97R
BOISE ID       MOCLDY    63  34  33 SE10      30.00S
SEATTLE WA     CLOUDY    56  46  69 NE10      30.10S
$$

*** WEATHER ACROSS MANITOBA...SASKATCHEWAN AND ONTARIO ***
                ***ONTARIO***

CITY           SKY/WX    TMP DP  RH WIND       PRES   REMARKS
GERALDTON      LGT SNOW  32  30  93 N14G21    29.80R FOG     WCI  22
THUNDER BAY    PTCLDY    41  32  70 NE8       29.85R
SIOUX LOOKOUT  CLEAR     36  27  69 N6        29.95R
TORONTO        CLEAR     45  36  70 SE5       29.73S
BIG TROUT LK   CLEAR     21  19  93 N6        30.03R WCI  14
PICKLE LAKE    NOT AVBL
DRYDEN         CLEAR     37  30  75 N7        29.95R
KENORA         CLEAR     39  32  75 N7        29.99
$$
                *** MANITOBA***

CITY           SKY/WX    TMP DP  RH WIND       PRES   REMARKS
BRANDON        CLEAR     34  25  69 N3        30.09R
DAUPHIN        CLEAR     34  28  80 W6        30.06S
ISLAND LAKE    CLEAR     28  23  80 NE2       30.09R
PILOT MOUND      N/A     34  28  80 W3          N/A
THE PAS        CLOUDY    45  32  61 SE7       29.99S
THOMPSON       CLEAR     34  19  55 SE3       30.04S
WINNIPEG       CLEAR     37  30  75 N3        30.06S
LYNN LAKE      CLEAR     41  23  48 SE8       29.93F
GILLAM         CLEAR     23  19  86 SE3       30.10S
$$
                ***SASKATCHEWAN***

CITY           SKY/WX    TMP DP  RH WIND       PRES   REMARKS
ESTEVAN        CLEAR     45  34  65 SE7       30.05S
KINDERSLEY     CLEAR     55  39  54 S12       29.92S
LLOYDMINSTER   CLEAR     54  41  62 S8        29.85S
PRINCE ALBERT  MOCLDY    50  43  76 E5        29.90S
REGINA         CLEAR     50  36  57 SE9       30.01S
YORKTON        MOCLDY    50  32  50 S10G17    30.03S
N. BATTLEFORD  CLEAR     61  37  41 S7        29.89F
LA RONGE       CLEAR     52  34  50 S7        29.84F
SASKATOON      CLEAR     57  39  51 S8        29.92F
SWIFT CURRENT  CLEAR     55  41  58 SW14      29.99S
$$
NOTE: THESE ARE AUTOMATED STATIONS WITH LIMITED QUALITY CONTROL
      "FAIR" INDICATES FEW OR NO CLOUDS BELOW 12,000 FEET WITH NO
      SIGNIFICANT WEATHER AND/OR OBSTRUCTIONS TO VISIBILITY.
      SKY/WX - SKY CONDITION AND SIGNIFICANT WEATHER.
      TMP - AIR TEMPERATURE.    DP   - DEWPOINT TEMPERATURE.
      RH  - RELATIVE HUMIDITY.  PRES - PRESSURE.
      HX  - HEAT INDEX.         WCI  - WIND CHILL INDEX.
$




USA.gov is the U.S. government's official web portal to all federal, state and local government web resources and services.